Tracking 29892 objects as of 21-Nov-2024
HD Live streaming from Space Station
objects crossing your sky now

STARLINK-31203

Track STARLINK-31203 now!
10-day predictions
STARLINK-31203 is classified as:


NORAD ID: 58869
Int'l Code: 2024-019S
Perigee: 494.7 km
Apogee: 495.6 km
Inclination: 43.0 °
Period: 94.4 minutes
Semi major axis: 6866 km
RCS: Unknown
Launch date: January 29, 2024
Source: United States (US)
Launch site: AIR FORCE EASTERN TEST RANGE (AFETR)
Your satellite tracking list
Your tracking list is empty




NASA's NSSDC Master Catalog

Two Line Element Set (TLE):
1 58869U 24019S   24326.19322904  .00001384  00000-0  62705-4 0  9999
2 58869  43.0013  34.6809 0000675 232.9208 127.1582 15.25917931 46765
Source of the keplerian elements: AFSPC